Miscellaneous Local Product
Issued by NWS Hastings, NE

Home | Current Version | Previous Version | Text Only | Print | Product List | Glossary Off
Versions: 1 2 3 4 5 6 7 8 9 10 11 12 13 14 15 16 17 18 19 20 21 22 23 24 25 26 27 28 29 30 31 32 33 34 35 36 37 38 39 40 41 42 43 44 45 46 47 48 49 50

000
AXUS43 KGID 282102
MISGRI

GID CWA HOURLY WEATHER ROUNDUP
NATIONAL WEATHER SERVICE HASTINGS NE
400 PM CDT FRI AUG 28 2015

NOTE: "FAIR" INDICATES FEW OR NO CLOUDS BELOW 12,000 FEET WITH NO
SIGNIFICANT WEATHER AND/OR OBSTRUCTIONS TO VISIBILITY.

...SOUTH CENTRAL NEBRASKA...

CITY           SKY/WX    TMP DP  RH WIND       PRES   REMARKS
GRAND ISLAND   CLOUDY    77  61  57 N18       29.96R
HASTINGS       CLOUDY    77  62  59 N14       29.95S
KEARNEY        PTSUNNY   79  61  53 N17       29.97S
ORD            CLOUDY    75  61  61 N13       29.97S
YORK           CLOUDY    72  64  78 NW13      29.93R
AURORA         CLOUDY    71  65  81 N10       29.95S
LEXINGTON      PTSUNNY   80  65  59 N9        29.99S
HOLDREGE       MOSUNNY   76  64  66 N14G20    29.98S
HEBRON         CLOUDY    79  64  60 NW7       29.90S

...NEBRASKA PANHANDLE...

CITY           SKY/WX    TMP DP  RH WIND       PRES   REMARKS
CHADRON        SUNNY     90  48  23 VRB3      30.05F HAZE
ALLIANCE       SUNNY     88  46  23 N14G21    30.09S
SCOTTSBLUFF    SUNNY     89  41  18 N10       30.09F
SIDNEY         SUNNY     87  44  22 N12       30.12F

...WESTERN AND NORTH CENTRAL NEBRASKA...

CITY           SKY/WX    TMP DP  RH WIND       PRES   REMARKS
VALENTINE      SUNNY     81  60  48 N9        30.02F
AINSWORTH      MOSUNNY   76  63  64 NE7       30.03S
ONEILL         PTSUNNY   75  65  70 N10       29.98F
BROKEN BOW     CLOUDY    77  62  59 N9        30.00S
IMPERIAL       SUNNY     89  53  29 N13       30.03S
NORTH PLATTE   MOSUNNY   82  62  50 N14       30.01S
MCCOOK         MOSUNNY   87  60  40 N12G21    29.99S

...EASTERN NEBRASKA...

CITY           SKY/WX    TMP DP  RH WIND       PRES   REMARKS
NORFOLK        CLOUDY    73  64  73 N16       29.91S
SO SIOUX CITY  CLOUDY    68  62  81 N17       29.87R
TEKAMAH        CLOUDY    73  66  78 NW12      29.85S
COLUMBUS       CLOUDY   N/A N/A N/A N8G16     29.92R
ALBION         CLOUDY    72  62  71 N13       29.95S
OMAHA EPPLEY   CLOUDY    75  68  78 NW10      29.85R
OFFUTT AFB     PTSUNNY   76  69  78 NW17      29.84R
MILLARD        CLOUDY    74  67  80 NW13G21   29.86R
LINCOLN        CLOUDY    77  66  68 NW18      29.88S
NEBRASKA CITY  CLOUDY    80  67  63 W7        29.85S
BEATRICE       CLOUDY    78  67  71 NW10      29.87S
FALLS CITY     RAIN      77  71  82 W10       29.85R

...NORTHERN KANSAS...

CITY           SKY/WX    TMP DP  RH WIND       PRES   REMARKS
GOODLAND       MOSUNNY   91  46  21 N13G25    30.04F
HILL CITY      SUNNY     90  60  36 N15G29    29.95F
NORTON         PTCLDY    82  57  42 NW13      29.97R
PHILLIPSBURG   MOSUNNY   84  64  51 N14G23    29.95R
SMITH CENTER   PTSUNNY   79  64  61 N13G22    29.93S
HAYS           MOSUNNY   91  59  33 N17G24    29.91F HX  90
RUSSELL        MOSUNNY   88  63  43 NW12G23   29.90F
CONCORDIA      PTSUNNY   81  69  67 W7        29.88F
SALINA         MOSUNNY   87  69  54 NW14      29.88F HX  91
TOPEKA         PTSUNNY   84  68  58 S12       29.87F



USA.gov is the U.S. government's official web portal to all federal, state and local government web resources and services.